User: anonymous   Login
Location: Unspecified
(0.0000°N, 0.0000°E)
Time: 13:14:25
(UTC+01:00)
Language:

Landsat 4 - Orbit

View from above orbital plane
View from above orbital plane
View from above satellite
View from above satellite

Ground track
Ground track

The orbit data is extracted from the following two-line orbital elements,

1 13367U 82072A   16339.14440164  .00000960  00000-0  54686-4 0  9993
2 13367  98.2252 119.5370 0014229 140.0099 320.2799 15.15532134855489
Epoch (UTC): 04 December 2016 03:27:56
Eccentricity: 0.0014229
inclination: 98.2252°
perigee height: 509 km
apogee height: 529 km
right ascension of ascending node: 119.5370°
argument of perigee: 140.0099°
revolutions per day: 15.15532134
mean anomaly at epoch: 320.2799°
orbit number at epoch: 85548

The dashed part of the orbit path shows where the satellite is in the earth's shadow,  

DLR